#timestamp,LO_Frequency,Hit,StdDev 
1539723615.7,286046995.6,N
1539723635.5,286047001.0,N
1539723655.4,286046999.2,N
1539723675.2,286046996.6,N
1539723695.0,286046997.0,N
1539723696.0,286046997.0,N
1539723715.8,286046995.6,N
1539723735.6,286046994.1,Y
1539723755.5,286046998.1,P
1539723775.3,286046999.7,N
1539723795.1,286047000.8,N
1539723815.9,286046996.9,N
1539723835.7,286046997.2,N
1539723855.6,286046996.8,N
1539723875.4,286046995.3,Y
1539723895.2,286046999.6,P
1539723915.1,286046996.6,P
1539723916.0,286046996.6,N
1539723935.8,286046999.2,N
1539723955.7,286046999.5,N
1539723975.5,286046998.9,N
1539723995.3,286047001.2,N
1539724015.2,286046998.4,N
1539724035.0,286046999.6,N
1539724035.9,286046999.6,N
1539724055.7,286046999.6,N
1539724075.6,286047000.4,N
1539724095.4,286046998.2,N
1539724115.3,286046997.0,N
1539724135.1,286046997.2,N
1539724136.0,286046997.2,N
1539724155.8,286047000.4,N
1539724175.7,286046998.7,N
1539724195.5,286046999.4,N
1539724215.3,286046999.3,N
1539724235.2,286046998.9,N
1539724255.0,286047000.0,N
1539724255.9,286047000.0,N
1539724275.8,286047003.6,N
1539724295.6,286047003.5,N
1539724315.4,286047005.2,Y
1539724335.3,286047009.6,P
1539724355.1,286047013.5,N
1539724375.9,286047013.9,N
1539724395.7,286047014.0,N
1539724415.5,286047017.0,Y
1539724435.4,286047004.6,P
1539724455.2,286047004.2,N
1539724475.0,286047003.6,N
1539724475.9,286047003.6,N
1539724495.8,286047005.2,N
1539724515.6,286047006.3,N
1539724535.5,286047008.1,Y
1539724555.3,286047004.1,P
1539724575.1,286047005.4,P
1539724595.9,286047008.7,P
1539724615.7,286047005.3,Y
1539724635.5,286046996.7,P
1539724655.4,286046996.6,N
1539724675.2,286046994.4,N
1539724695.1,286046994.6,N
1539724696.0,286046994.6,N
1539724715.8,286046995.7,N
1539724735.6,286046994.9,N
1539724755.5,286046998.9,N
1539724775.3,286046994.1,N
1539724795.1,286046995.6,N
1539724815.9,286046998.7,N
1539724835.7,286046997.0,N
1539724855.6,286046999.1,N
1539724875.4,286046998.5,N
1539724895.2,286046997.5,N
1539724915.1,286046996.8,N
1539724916.0,286046996.8,N
1539724935.8,286047000.7,N
1539724955.6,286047002.0,N
1539724975.5,286047002.4,N
1539724995.3,286046999.1,N
1539725015.2,286046996.6,N
1539725035.9,286046998.2,N
1539725055.7,286046996.5,N
1539725075.6,286046996.5,N
1539725095.4,286047001.0,N
1539725115.2,286046998.5,N
1539725135.1,286046997.6,N
1539725136.0,286046997.6,N
1539725155.8,286046993.6,N
1539725175.7,286046992.6,Y
1539725195.5,286046997.9,P
1539725215.3,286046997.8,P
1539725235.2,286046999.3,P
1539725255.0,286046999.5,N
1539725255.9,286046999.5,N
1539725275.8,286046995.9,Y
1539725295.6,286046999.2,P
1539725315.4,286046996.6,P
1539725335.3,286046999.5,N
1539725355.1,286047000.3,N
1539725375.8,286047004.4,Y
1539725395.7,286047006.8,P
1539725415.5,286047007.0,N
1539725435.4,286047005.0,N
1539725455.2,286047006.9,N
1539725475.0,286047004.6,N
1539725475.9,286047004.6,N
1539725495.8,286047003.4,N
1539725515.6,286047000.2,N
1539725535.4,286046998.4,N
1539725555.3,286046999.0,N
1539725575.1,286046997.8,N
1539725595.9,286046997.7,N
1539725615.7,286046998.1,N
1539725635.5,286046999.5,N
1539725655.4,286046997.1,N
1539725675.2,286046996.2,N
1539725695.0,286046993.4,N
1539725695.9,286046993.4,N
1539725715.8,286046998.8,N
1539725735.6,286046999.5,N
1539725755.5,286046998.3,N
1539725775.3,286046998.5,N
1539725795.1,286046999.3,N
1539725815.9,286046994.9,N
1539725835.7,286046997.9,N
1539725855.5,286046999.7,N
1539725875.4,286047003.6,N
1539725895.2,286047003.3,N
1539725915.1,286047006.8,N
1539725916.0,286047006.8,N
1539725935.8,286047009.6,N
1539725955.6,286047006.5,N
1539725975.5,286047007.8,N
1539725995.3,286047007.6,N
1539726015.1,286047006.2,N
1539726035.9,286047007.3,N
1539726055.7,286047001.4,N
1539726075.6,286046999.7,N
1539726095.4,286047000.6,N
1539726115.2,286046996.9,N
1539726135.1,286046999.2,N
1539726136.0,286046999.2,N
1539726155.8,286046996.8,N
1539726175.6,286046996.0,N
1539726195.5,286046999.5,N
1539726215.3,286046996.7,N
1539726235.2,286046999.6,N
1539726255.9,286047000.5,N
1539726275.7,286047000.1,N
1539726295.6,286047000.5,N
1539726315.4,286046999.1,N
1539726335.2,286046999.1,N
1539726355.1,286046999.2,N
1539726356.0,286046999.2,N
1539726375.8,286046996.9,N
1539726395.7,286046998.8,N
1539726415.5,286046994.9,N
1539726435.3,286046993.3,N
1539726455.2,286046992.5,N
1539726475.0,286046992.5,N
1539726475.9,286046992.5,N
1539726495.7,286046990.1,N
1539726515.6,286046992.9,N
1539726535.4,286046992.5,N
1539726555.3,286046994.5,N
1539726575.1,286046990.4,N
1539726576.0,286046990.4,N
1539726595.8,286046990.7,N
1539726615.7,286046990.3,N
1539726635.5,286046989.6,N
1539726655.3,286046990.7,N
1539726675.2,286046992.1,N
1539726695.0,286046993.2,N
1539726695.9,286046993.2,N
1539726715.8,286046993.0,N
1539726735.6,286046994.8,N
1539726755.4,286046991.7,N
1539726775.3,286046990.1,N
1539726795.1,286046990.9,N
1539726815.9,286046990.0,Y
1539726835.7,286046996.0,P
1539726855.5,286046995.6,P
1539726875.4,286046996.0,P
1539726895.2,286046994.0,Y
1539726915.0,286046999.3,P
1539726915.9,286046999.3,N
1539726935.8,286047002.7,N
1539726955.6,286047001.4,N
1539726975.5,286047002.7,N
1539726995.3,286047004.0,N
1539727015.1,286047004.4,N
1539727035.9,286047002.7,N
1539727055.7,286047003.9,N
1539727075.5,286047004.7,N
1539727095.4,286047004.2,N
1539727115.2,286047001.3,N
1539727135.1,286047000.1,N
1539727136.0,286047000.1,N
1539727155.8,286046999.8,N
1539727175.6,286047002.5,N
1539727195.5,286047000.2,N
